Lulu Pass Weather Station

This weather station is located at 10020ft near Lulu Pass at the head of Fisher Creek. This data can be used with temperature and precipitation data from the Fisher Creek SNOTEL site. This data can be viewed directly on datagarrison.com

Elevation
10020ft
Jump to table bottom
Date Time Temperature
deg F
RH, % Wind Speed Wind Gust Wind Direction
11/30/22 13:00 9.4 89 21 43 S - 187
11/30/22 12:00 7.6 88 17 30 S - 192
11/30/22 11:00 6.7 88 21 34 S - 194
11/30/22 10:00 5.5 87 13 32 S - 198
11/30/22 09:00 4.4 87 9 26 SW - 213
11/30/22 08:00 3.0 87 7 20 SW - 226
11/30/22 07:00 1.4 87 5 16 W - 278
11/30/22 06:00 0.9 86 7 20 SW - 208
11/30/22 05:00 0.2 86 5 18 SW - 244
11/30/22 04:00 -0.1 86 8 29 SW - 226
11/30/22 03:00 -0.8 86 9 24 SW - 218
11/30/22 02:00 -1.2 86 9 26 SW - 211
11/30/22 01:00 -1.8 85 10 27 SW - 209
11/30/22 00:00 -2.5 85 13 34 S - 199
11/29/22 23:00 -2.4 85 9 25 SW - 229
11/29/22 22:00 -2.6 85 10 24 SW - 233
11/29/22 21:00 -3.2 85 9 20 SW - 234
11/29/22 20:00 -4.3 85 13 24 SW - 216
11/29/22 19:00 -4.5 85 12 27 SW - 226
11/29/22 18:00 -4.2 85 11 25 SW - 225
11/29/22 17:00 -3.9 85 12 33 W - 254
11/29/22 16:00 -4.2 85 14 28 W - 263
11/29/22 15:00 -4.0 85 14 27 W - 261
11/29/22 14:00 -3.7 85 12 26 W - 258
11/29/22 13:00 -2.3 85 10 25 SW - 246
11/29/22 12:00 -2.4 85 10 18 W - 272
11/29/22 11:00 -3.4 85 6 15 W - 253
11/29/22 10:00 -2.8 85 5 10 W - 281
11/29/22 09:00 -3.0 85 5 11 W - 278
11/29/22 08:00 -5.4 85 9 12 NW - 305
11/29/22 07:00 -5.1 85 9 15 W - 286
11/29/22 06:00 -4.4 85 9 15 NW - 296
11/29/22 05:00 -4.7 84 6 10 NW - 295
11/29/22 04:00 -4.9 84 8 11 NW - 312
11/29/22 03:00 -5.2 84 5 9 NW - 323
11/29/22 02:00 -5.4 84 3 5 NW - 319
11/29/22 01:00 -5.8 84 2 5 NE - 24
11/29/22 00:00 -5.9 85 1 4 NE - 37
11/28/22 23:00 -7.5 85 1 4 NE - 52
11/28/22 22:00 -4.7 85 4 5 SE - 117
11/28/22 21:00 -4.8 84 6 10 SE - 117
11/28/22 20:00 -5.9 84 6 13 SE - 131
11/28/22 19:00 -7.7 85 5 10 SE - 124
11/28/22 18:00 -3.5 86 0 5 NE - 37
11/28/22 17:00 -3.7 85 3 5 N - 6
11/28/22 16:00 -3.5 86 5 8 N - 351
11/28/22 15:00 -0.5 87 9 13 NW - 329
11/28/22 14:00 1.4 88 7 14 W - 275
11/28/22 13:00 0.7 87 8 17 W - 271
11/28/22 12:00 1.6 87 5 11 SW - 244